[[{"header":{"parameterUnit":"m.s-1","parameterCategory":1,"la1":30.2991,"la2":30.254,"lo1":-89.0895,"lo2":-89.0444,"dy":0.0017,"dx":0.0017,"nx":28,"ny":28,"refTime":"2024-02-21T03:00:00:Z","depth":0,"parameterNumber":2,"parameterNumberName":"U-component_of_WINDS"},"data":[0,0,0,0,0,0,0,0,0,0,0,0,0,0,0,0,0,0,0,0,0,0,0,0,0,0,0,0,0,0,0,0,0,0,0,0,0,0,0,0,0,0,0,0,0,0,0,0,0,0,0,0,0,0,0,0,0,0,0.2334,0.2335,0,0.2447,0.2448,0.2449,0.2456,0.2454,0.2453,0.2452,0.2569,0.2573,0.2578,0,0,0,0,0,0,0,0,0,0,0,0,0,0.2126,0.213,0.2334,0.2335,0.2337,0.2447,0.2448,0.245,0.2456,0.2454,0.2453,0.2451,0.2568,0.2573,0.2578,0,0,0,0,0,0,0,0,0,0,0,0,0,0.2225,0.2131,0.2334,0.2353,0.2356,0.2446,0.2448,0.245,0.2456,0.2454,0.2452,0.2451,0.2566,0.2572,0.2579,0.2658,0,0,0.2599,0.2602,0,0,0,0,0,0,0,0,0.222,0.2233,0.2349,0.2352,0.2355,0.2435,0.2418,0.252,0.2457,0.2418,0.2452,0.245,0.2526,0.2536,0.2562,0.2664,0.2669,0.2599,0.2603,0.2606,0.2608,0,0,0,0,0,0,0,0.2213,0.2228,0.2379,0.235,0.2354,0.2357,0.2369,0.2437,0.2482,0.2421,0.2422,0.2435,0.2528,0.2555,0.2564,0.267,0.2599,0.2605,0.2609,0.2611,0.2845,0.2847,0,0,0,0,0,0,0.2202,0.2222,0.2375,0.2382,0.2281,0.2362,0.2376,0.2412,0.2481,0.249,0.2437,0.2435,0.2545,0.2557,0.2568,0.2667,0.2606,0.2612,0.2616,0.2843,0.2846,0.2848,0,0,0,0,0,0,0.2197,0.2216,0.237,0.2303,0.2322,0.2368,0.2408,0.2415,0.2442,0.2493,0.2501,0.2457,0.2544,0.2559,0.2636,0.2672,0.2615,0.2621,0.284,0.2844,0.2847,0.2865,0,0,0,0,0,0,0.2191,0.2214,0.2244,0.2303,0.2326,0.2436,0.241,0.2418,0.2453,0.2452,0.2514,0.2522,0.2544,0.2626,0.2643,0.2679,0.2626,0.2837,0.2842,0.2846,0.2861,0.2868,0.2875,0,0,0,0,0,0.2184,0.2244,0.2245,0.2264,0.2364,0.2438,0.2451,0.2474,0.2456,0.2487,0.252,0.252,0.2665,0.2634,0.2652,0.2692,0.2835,0.284,0.2845,0.2858,0.2867,0.2874,0,0,0,0,0,0,0.2188,0.2252,0.2254,0.2335,0.2381,0.2438,0.2478,0.2482,0.2534,0.2531,0.2558,0.2572,0.2649,0.2678,0.2643,0.2773,0.2748,0.2757,0.2752,0.276,0.2767,0.2759,0.2631,0,0,0,0,0,0.2198,0.2252,0.2305,0.2372,0.2394,0.2432,0.2465,0.2479,0.2528,0.2547,0.2586,0.2633,0.269,0.2726,0.2781,0.2865,0.288,0.2901,0.2908,0.2913,0.2921,0.297,0.298,0.2865,0.2865,0.2865,0,0,0.222,0.2262,0.2294,0.2374,0.2411,0.2467,0.2449,0.2508,0.255,0.2557,0.2632,0.2661,0.2717,0.2798,0.2836,0.2825,0.2956,0.292,0.2923,0.2929,0.2976,0.2987,0.2997,0.2869,0.2868,0.2867,0,0,0.2289,0.2325,0.2385,0.2423,0.2479,0.2504,0.2519,0.2576,0.2596,0.2672,0.2678,0.2729,0.2825,0.2865,0.2897,0.2982,0.2985,0.2999,0.3035,0.3082,0.3091,0.3099,0.3131,0.3142,0.3007,0.3007,0.3007,0,0.2309,0.2393,0.2416,0.2476,0.2512,0.2519,0.2582,0.2617,0.2688,0.2713,0.2699,0.2821,0.2859,0.295,0.2971,0.2997,0.3015,0.2993,0.3087,0.3096,0.3104,0.3135,0.3147,0.3008,0.3008,0.3008,0.3008,0,0.2416,0.2474,0.2516,0.2585,0.2625,0.2686,0.2719,0.2757,0.2768,0.2794,0.2872,0.2918,0.2982,0.3005,0.3016,0.3099,0.309,0.3081,0.3057,0.3116,0.3146,0.3158,0.301,0.301,0.3009,0.3009,0,0,0.2491,0.2572,0.2588,0.262,0.2683,0.2729,0.279,0.2853,0.2886,0.2935,0.2989,0.307,0.3063,0.31,0.3115,0.3156,0.3223,0.3143,0.3145,0.3158,0.3319,0.3327,0.334,0.3225,0.3227,0.3229,0.3315,0,0.2568,0.2677,0.27,0.2795,0.285,0.2859,0.2913,0.2958,0.2985,0.3036,0.3066,0.3124,0.3109,0.3132,0.3173,0.3206,0.3256,0.32,0.3276,0.3278,0.3264,0.3355,0.3363,0.3442,0.3327,0.3329,0.333,0,0.2673,0.2725,0.2825,0.2883,0.2907,0.2954,0.3015,0.3063,0.3115,0.3132,0.3174,0.3185,0.3251,0.3222,0.3314,0.3275,0.3307,0.3329,0.3332,0.3341,0.3309,0.3368,0.3468,0.348,0.3348,0.3347,0.3345,0,0.2719,0.2814,0.2887,0.2914,0.2982,0.3016,0.3046,0.3096,0.3133,0.3186,0.3211,0.327,0.3304,0.335,0.3378,0.3354,0.3468,0.3441,0.3485,0.3484,0.3509,0.3508,0.3617,0.3527,0.3527,0.3527,0.3527,0,0.2804,0.2865,0.2909,0.2954,0.3024,0.305,0.3119,0.3149,0.3193,0.3245,0.3256,0.3304,0.3337,0.3391,0.3413,0.3486,0.35,0.3517,0.3522,0.3517,0.3515,0.354,0.3535,0.353,0.353,0.3529,0.3528,0,0.2868,0.29,0.298,0.3038,0.3055,0.3104,0.3154,0.3199,0.3226,0.3291,0.3308,0.3351,0.3414,0.3446,0.3525,0.354,0.3624,0.3625,0.3606,0.3609,0.3651,0.3648,0.3782,0.3801,0.3697,0.3698,0.3699,0,0.2921,0.2968,0.3032,0.3068,0.3099,0.3155,0.3193,0.3221,0.326,0.3324,0.3361,0.3425,0.3478,0.3579,0.3618,0.3679,0.3683,0.3725,0.3692,0.3685,0.3685,0.3683,0.3689,0.3732,0.3733,0.3733,0.3734,0,0.3011,0.3025,0.3079,0.3139,0.3184,0.3233,0.3281,0.331,0.3345,0.3389,0.3454,0.3495,0.3576,0.3641,0.3704,0.3736,0.3742,0.3744,0.3758,0.3754,0.3742,0.3751,0.3624,0.3741,0.3741,0.374,0.374,0.3739,0.3072,0.3116,0.3168,0.3229,0.3268,0.3313,0.3358,0.3391,0.3446,0.3514,0.3527,0.3597,0.3649,0.3735,0.3769,0.3825,0.3815,0.3835,0.384,0.3845,0.3848,0.3732,0.3836,0.3836,0.3836,0.3836,0.3835,0,0.3165,0.3199,0.3255,0.3322,0.337,0.337,0.3424,0.3464,0.3526,0.3573,0.3625,0.3701,0.3764,0.3807,0.3871,0.3907,0.3912,0.3923,0.3922,0.3929,0.3851,0.3834,0.3919,0.3919,0.3919,0.3919,0.3919,0.3919,0.3219,0.3293,0.3313,0.3408,0.3442,0.351,0.3541,0.3583,0.3622,0.3706,0.3758,0.3786,0.3833,0.39,0.3958,0.3969,0.3993,0.4005,0.4016,0.3943,0.3934,0.3926,0.391,0.4009,0.4009,0.409,0.4091,0.4091]},{"header":{"parameterUnit":"m.s-1","parameterCategory":1,"la1":30.2991,"la2":30.254,"lo1":-89.0895,"lo2":-89.0444,"dy":0.0017,"dx":0.0017,"nx":28,"ny":28,"refTime":"2024-02-21T03:00:00:Z","depth":0,"parameterNumber":3,"parameterNumberName":"V-component_of_WINDS"},"data":[0,0,0,0,0,0,0,0,0,0,0,0,0,0,0,0,0,0,0,0,0,0,0,0,0,0,0,0,0,0,0,0,0,0,0,0,0,0,0,0,0,0,0,0,0,0,0,0,0,0,0,0,0,0,0,0,0,0,3.2277,3.2281,0,3.2623,3.2627,3.2631,3.2714,3.2712,3.271,3.2708,3.3058,3.3069,3.3081,0,0,0,0,0,0,0,0,0,0,0,0,0,3.1688,3.1698,3.2277,3.2281,3.2285,3.2622,3.2627,3.2632,3.2715,3.2712,3.2709,3.2707,3.3054,3.3068,3.3082,0,0,0,0,0,0,0,0,0,0,0,0,0,3.198,3.1702,3.2276,3.2368,3.2379,3.2621,3.2627,3.2633,3.2715,3.2712,3.2709,3.2705,3.305,3.3067,3.3084,3.3258,0,0,3.3136,3.3143,0,0,0,0,0,0,0,0,3.1963,3.2001,3.235,3.2362,3.2375,3.2622,3.2548,3.2842,3.2716,3.2588,3.2708,3.2704,3.2916,3.2944,3.3016,3.3274,3.3289,3.3138,3.3148,3.3155,3.316,0,0,0,0,0,0,0,3.1943,3.1987,3.2413,3.2355,3.237,3.2391,3.2429,3.2604,3.2766,3.2599,3.2606,3.2646,3.2922,3.2999,3.3025,3.3294,3.3137,3.3152,3.3163,3.317,3.3717,3.3721,0,0,0,0,0,0,3.1907,3.1969,3.2402,3.2424,3.2157,3.2405,3.2447,3.2546,3.2765,3.2795,3.2648,3.2648,3.2971,3.3005,3.3037,3.3259,3.3155,3.3171,3.3181,3.3713,3.3718,3.3723,0,0,0,0,0,0,3.1894,3.1945,3.2389,3.2199,3.2257,3.2419,3.2529,3.2555,3.2632,3.2802,3.2831,3.2697,3.297,3.3013,3.3204,3.3272,3.3179,3.3195,3.3708,3.3715,3.3721,3.3702,0,0,0,0,0,0,3.1876,3.1939,3.2007,3.22,3.2267,3.2549,3.2534,3.2564,3.2662,3.2665,3.2856,3.2884,3.2971,3.3178,3.3221,3.3294,3.3208,3.3703,3.3711,3.3719,3.3697,3.3707,3.3715,0,0,0,0,0,3.1855,3.1986,3.201,3.2062,3.2355,3.2553,3.2591,3.2689,3.2667,3.2737,3.2847,3.2878,3.3257,3.3196,3.3246,3.3325,3.3699,3.3709,3.3718,3.3693,3.3705,3.3715,0,0,0,0,0,0,3.1796,3.2013,3.2042,3.2239,3.2377,3.2567,3.2658,3.2698,3.2844,3.2841,3.2955,3.2997,3.3181,3.3272,3.32,3.3508,3.3478,3.3498,3.3442,3.3455,3.3463,3.3438,3.3222,0,0,0,0,0,3.1806,3.1949,3.2131,3.2287,3.2356,3.2495,3.2584,3.2648,3.2795,3.2854,3.2977,3.3118,3.327,3.3367,3.3515,3.371,3.3754,3.3789,3.3798,3.3805,3.3821,3.3935,3.3954,3.3754,3.3754,3.3754,0,0,3.1827,3.1964,3.2047,3.2279,3.2394,3.254,3.2543,3.2697,3.2807,3.2877,3.3066,3.3161,3.3326,3.3521,3.3612,3.3602,3.3886,3.3817,3.3821,3.3834,3.3947,3.3965,3.3982,3.3761,3.376,3.3759,0,0,3.1943,3.2059,3.2205,3.232,3.2495,3.2587,3.2622,3.2807,3.2874,3.3065,3.3122,3.3254,3.3511,3.3628,3.372,3.3883,3.3919,3.3928,3.3976,3.4085,3.4101,3.4116,3.4177,3.4197,3.3943,3.3943,3.3944,0,3.1948,3.2172,3.2274,3.2427,3.2529,3.2601,3.275,3.2856,3.3069,3.3138,3.3123,3.3451,3.3566,3.3791,3.3831,3.3903,3.3948,3.3908,3.4091,3.4106,3.4121,3.4181,3.4204,3.3944,3.3944,3.3944,3.3944,0,3.2171,3.2325,3.2421,3.2629,3.2741,3.289,3.3016,3.3117,3.3172,3.3265,3.3461,3.3603,3.3783,3.3841,3.3894,3.4074,3.4063,3.4068,3.4041,3.4139,3.4197,3.4221,3.3944,3.3944,3.3944,3.3944,0,0,3.2258,3.2522,3.2556,3.2652,3.2851,3.2973,3.3126,3.3305,3.3391,3.3535,3.3669,3.3886,3.3894,3.3999,3.4066,3.4162,3.4286,3.4156,3.4162,3.4178,3.4498,3.4495,3.4519,3.431,3.4315,3.4319,3.4485,0,3.24,3.2679,3.2777,3.3008,3.3153,3.3225,3.336,3.3496,3.3588,3.3725,3.3826,3.3981,3.3977,3.4042,3.4139,3.425,3.4352,3.4239,3.4437,3.4443,3.4396,3.4549,3.4546,3.4696,3.4508,3.4512,3.4515,0,3.2603,3.2754,3.2999,3.3184,3.3249,3.3368,3.3541,3.3671,3.3828,3.3889,3.4008,3.4069,3.4234,3.4196,3.4425,3.4346,3.4433,3.4499,3.4508,3.4532,3.4486,3.458,3.4746,3.4769,3.4551,3.4548,3.4545,0,3.2646,3.291,3.3092,3.3172,3.3391,3.3474,3.3568,3.3723,3.3825,3.3976,3.4044,3.421,3.4302,3.443,3.4536,3.4497,3.4757,3.4726,3.4813,3.4811,3.4866,3.4861,3.505,3.4917,3.4916,3.4916,3.4915,0,3.2796,3.2944,3.3115,3.3227,3.3396,3.3508,3.3672,3.3771,3.3908,3.4041,3.4112,3.4235,3.4366,3.4506,3.4589,3.4769,3.4808,3.4863,3.4884,3.4859,3.4852,3.4918,3.4911,3.4922,3.4921,3.4919,3.4918,0,3.2872,3.2993,3.3197,3.3388,3.344,3.3556,3.3721,3.3833,3.3929,3.4097,3.4143,3.4293,3.4463,3.4581,3.4797,3.4853,3.5048,3.5066,3.4996,3.5007,3.5088,3.508,3.5328,3.5368,3.5204,3.5206,3.5207,0,3.2961,3.3078,3.3283,3.3379,3.3474,3.3626,3.3732,3.3847,3.3954,3.4144,3.4234,3.4409,3.4555,3.4822,3.4951,3.5118,3.5142,3.5218,3.5167,3.514,3.5147,3.514,3.5154,3.5226,3.5227,3.5228,3.5229,0,3.3108,3.3163,3.3313,3.3485,3.361,3.3751,3.3892,3.3966,3.4105,3.4222,3.4398,3.4512,3.4735,3.4909,3.5089,3.5186,3.5232,3.5244,3.5273,3.525,3.5206,3.5234,3.502,3.5238,3.5237,3.5236,3.5236,3.5235,3.3196,3.3304,3.3467,3.3633,3.3752,3.3883,3.4,3.4112,3.4261,3.4453,3.4511,3.4695,3.4852,3.5099,3.5199,3.5344,3.5339,3.538,3.5392,3.5401,3.5403,3.5181,3.5377,3.5377,3.5377,3.5377,3.5377,0,3.3349,3.3458,3.3609,3.3807,3.3938,3.3971,3.413,3.4237,3.4398,3.4542,3.4686,3.4889,3.5059,3.5201,3.5377,3.5466,3.5491,3.5508,3.5504,3.5527,3.5396,3.5354,3.5485,3.5485,3.5485,3.5485,3.5485,3.5485,3.3444,3.363,3.3704,3.3951,3.4059,3.4241,3.433,3.4452,3.4568,3.4793,3.4935,3.5027,3.5172,3.5359,3.5516,3.5554,3.5617,3.5629,3.5672,3.5547,3.5535,3.5523,3.5485,3.5641,3.5641,3.5791,3.5793,3.5794]}]]